TimeCST,TemperatureF,Dew PointF,Humidity,Sea Level PressureIn,VisibilityMPH,Wind Direction,Wind SpeedMPH,Gust SpeedMPH,PrecipitationIn,Events,Conditions,WindDirDegrees,DateUTC
1:53 AM,3.9,-2.9,73,30.37,10.0,Calm,Calm,-,N/A,,Overcast,0,2013-01-17 07:53:00
2:27 AM,5.0,-2.2,72,30.27,10.0,South,3.5,-,N/A,,Overcast,180,2013-01-17 08:27:00
2:53 AM,6.1,-0.9,73,30.39,10.0,SSW,5.8,-,N/A,,Overcast,210,2013-01-17 08:53:00
3:44 AM,8.6,-0.4,67,30.28,10.0,SW,4.6,-,N/A,,Overcast,220,2013-01-17 09:44:00
3:53 AM,8.1,-0.0,70,30.40,10.0,SW,4.6,-,N/A,,Overcast,230,2013-01-17 09:53:00
4:32 AM,8.6,1.4,73,30.27,10.0,SSW,8.1,-,N/A,,Overcast,200,2013-01-17 10:32:00
4:45 AM,8.6,1.4,73,30.27,10.0,South,6.9,-,N/A,,Overcast,190,2013-01-17 10:45:00
4:53 AM,9.0,1.0,70,30.39,10.0,South,5.8,-,N/A,,Overcast,180,2013-01-17 10:53:00
5:53 AM,10.9,1.9,67,30.38,10.0,South,4.6,-,N/A,,Overcast,170,2013-01-17 11:53:00
6:53 AM,10.0,3.9,76,30.39,10.0,SSW,6.9,-,N/A,,Mostly Cloudy,200,2013-01-17 12:53:00
7:53 AM,8.1,3.9,83,30.40,10.0,South,4.6,-,N/A,,Clear,180,2013-01-17 13:53:00
8:53 AM,8.1,3.9,83,30.44,10.0,SSE,3.5,-,N/A,,Scattered Clouds,150,2013-01-17 14:53:00
9:07 AM,10.4,6.8,85,30.32,10.0,Calm,Calm,-,N/A,,Mostly Cloudy,0,2013-01-17 15:07:00
9:15 AM,10.4,6.8,85,30.31,10.0,South,3.5,-,N/A,,Mostly Cloudy,180,2013-01-17 15:15:00
9:35 AM,10.4,6.8,85,30.33,10.0,South,5.8,-,N/A,,Scattered Clouds,180,2013-01-17 15:35:00
9:53 AM,12.9,9.0,84,30.46,10.0,South,3.5,-,N/A,,Mostly Cloudy,190,2013-01-17 15:53:00
10:33 AM,15.8,12.2,86,30.34,10.0,SSE,3.5,-,N/A,,Overcast,160,2013-01-17 16:33:00
10:53 AM,18.0,14.0,84,30.46,10.0,South,3.5,-,N/A,,Overcast,170,2013-01-17 16:53:00
11:53 AM,19.9,16.0,85,30.46,10.0,Calm,Calm,-,N/A,,Overcast,0,2013-01-17 17:53:00
12:53 PM,25.0,19.0,78,30.43,10.0,NNW,10.4,-,N/A,,Overcast,340,2013-01-17 18:53:00
1:53 PM,24.1,19.0,81,30.42,10.0,North,6.9,-,N/A,,Overcast,360,2013-01-17 19:53:00
2:53 PM,23.0,19.0,85,30.41,10.0,NNE,4.6,-,N/A,,Overcast,30,2013-01-17 20:53:00
3:07 PM,24.8,19.4,80,30.30,10.0,NE,3.5,-,N/A,,Overcast,40,2013-01-17 21:07:00
3:53 PM,24.1,18.0,77,30.40,10.0,NNE,5.8,-,N/A,,Overcast,30,2013-01-17 21:53:00
4:53 PM,23.0,18.0,81,30.39,10.0,ENE,3.5,-,N/A,,Overcast,60,2013-01-17 22:53:00
5:53 PM,21.9,17.1,82,30.38,10.0,SSE,5.8,-,N/A,,Overcast,150,2013-01-17 23:53:00
6:31 PM,21.2,17.6,86,30.26,10.0,SE,4.6,-,N/A,,Overcast,140,2013-01-18 00:31:00
6:42 PM,21.2,17.6,86,30.26,10.0,SE,6.9,-,N/A,,Overcast,130,2013-01-18 00:42:00
6:53 PM,21.0,17.1,85,30.36,10.0,SE,6.9,-,N/A,,Overcast,130,2013-01-18 00:53:00
7:53 PM,21.0,18.0,88,30.33,10.0,SSE,11.5,-,N/A,,Overcast,160,2013-01-18 01:53:00
8:41 PM,21.2,19.4,93,30.20,10.0,SSE,11.5,-,N/A,,Overcast,160,2013-01-18 02:41:00
8:53 PM,21.9,19.0,89,30.30,10.0,SSE,10.4,-,N/A,,Overcast,150,2013-01-18 02:53:00
9:09 PM,21.2,19.4,93,30.18,10.0,SSE,9.2,-,N/A,,Overcast,150,2013-01-18 03:09:00
9:53 PM,23.0,19.0,85,30.25,10.0,SSE,9.2,-,N/A,,Overcast,150,2013-01-18 03:53:00
10:53 PM,24.1,21.0,88,30.18,10.0,SSE,17.3,-,N/A,,Overcast,160,2013-01-18 04:53:00
11:53 PM,24.1,21.9,91,30.12,10.0,SSE,16.1,20.7,N/A,,Overcast,160,2013-01-18 05:53:00